Weather History for Calgary Springbank, AB

Change the Weather History Date:

Wednesday, July 3, 2013

  Actual Average Record
Temperature  
Mean Temperature 62 °F -  
Max Temperature 70 °F 70 °F 82 °F (1996)
Min Temperature 54 °F 44 °F 35 °F (2000)
Degree Days  
Heating Degree Days 3    
Growing Degree Days 12 (Base 50)    
Moisture  
Dew Point 55 °F    
Average Humidity 73    
Maximum Humidity 94    
Minimum Humidity 57    
Precipitation  
Precipitation 0.00 in - - ()
Sea Level Pressure  
Sea Level Pressure 30.00 in    
Wind  
Wind Speed 7 mph ()    
Max Wind Speed 12 mph    
Max Gust Speed -    
Visibility 20.0 miles    
Events      
Averages and records for this station are not official NWS values.
T = Trace of Precipitation, MM = Missing Value Source: Averaged Metar Reports

Daily Weather History Graph

Daily Weather History Graph

Search for Another Location

Airport:

Trip Planner

Search our weather history database for the weather conditions in past years. The results will help you decide how hot, cold, wet, or windy it might be!

Date:

Astronomy

Jul. 03, 2013 Rise Set
Actual Time 5:28 AM MDT 9:54 PM MDT
Civil Twilight 4:42 AM MDT 10:40 PM MDT
Nautical Twilight 3:33 AM MDT 11:49 PM MDT
Astronomical Twilight 2:14 AM MDT 1:09 AM MDT
Moon 2:23 AM MDT (7/3) 5:57 PM MDT (7/3)
Length of Visible Light 17h 58m
Length of Day
16h 26m
Waning Crescent, 18% of the Moon is Illuminated
Jul 3
Waning Crescent
Jul 8
New
Jul 15
First Quarter
Jul 22
Full
Jul 29
Last Quarter

Hourly Weather History & Observations

Time (MDT) Temp. Dew Point Humidity Pressure Visibility Wind Dir Wind Speed Gust Speed Precip Events Conditions
5:00 AM 57.2 °F 53.6 °F 88% 29.91 in 25.0 mi WNW 6.9 mph - N/A   Scattered Clouds
6:00 AM 55 °F 53 °F 90% 29.95 in 25 mi NW 6.9 mph - -   Partly Cloudy
6:00 AM 55.4 °F 53.6 °F 94% 29.95 in 25.0 mi NW 8.1 mph - N/A   Scattered Clouds
7:00 AM 60.8 °F 55.4 °F 82% 29.98 in 25.0 mi NNW 11.5 mph - N/A   Scattered Clouds
8:00 AM 60.8 °F 57.2 °F 88% 30.00 in 20.0 mi NW 10.4 mph - N/A   Mostly Cloudy
9:00 AM 62.6 °F 55.4 °F 77% 30.04 in 25.0 mi North 8.1 mph - N/A   Overcast
10:00 AM 60.8 °F 55.4 °F 82% 30.04 in 20.0 mi North 6.9 mph - N/A   Overcast
11:00 AM 62.6 °F 53.6 °F 72% 30.04 in 20.0 mi North 8.1 mph - N/A   Overcast
12:00 PM 65 °F 54 °F 60% 30.03 in 25 mi North 8.1 mph - -   Mostly Cloudy
12:00 PM 66.2 °F 53.6 °F 64% 30.03 in 25.0 mi NE 8.1 mph - N/A   Mostly Cloudy
1:00 PM 66.2 °F 53.6 °F 64% 30.02 in 25.0 mi ESE 6.9 mph - N/A   Mostly Cloudy
2:00 PM 69.8 °F 55.4 °F 60% 30.01 in 30.0 mi ESE 6.9 mph - N/A   Mostly Cloudy
3:00 PM 68.0 °F 55.4 °F 64% 30.01 in 30.0 mi ENE 5.8 mph - N/A   Mostly Cloudy
4:00 PM 69.8 °F 55.4 °F 60% 30.00 in 30.0 mi ENE 9.2 mph - N/A   Mostly Cloudy
5:00 PM 66.2 °F 55.4 °F 68% 30.02 in 30.0 mi NE 9.2 mph - N/A   Overcast
6:00 PM 67 °F 55 °F 57% 30.02 in 28 mi ENE 9.2 mph - -   Overcast
6:00 PM 66.2 °F 55.4 °F 68% 30.02 in 30.0 mi ENE 11.5 mph - N/A   Overcast
7:00 PM 66.2 °F 55.4 °F 68% 30.00 in 30.0 mi ENE 8.1 mph - N/A   Mostly Cloudy
8:00 PM 68.0 °F 55.4 °F 64% 30.00 in 30.0 mi East 8.1 mph - N/A   Mostly Cloudy
9:00 PM 64.4 °F 55.4 °F 73% 30.01 in 30.0 mi ESE 6.9 mph - N/A   Mostly Cloudy
10:00 PM 60.8 °F 55.4 °F 82% 30.02 in 25.0 mi ENE 2.3 mph - N/A   Mostly Cloudy